Location: Poughquag
(41.6090°N, 73.6820°W)
Time: 23:45:54
(UTC-05:00)

Tiros 1 despin weight - Pass Details

Date: 13 December 2023
Orbit: 581 x 624 km, 48.2° (Epoch: 21 February)

Event Time Altitude Azimuth Distance (km) Brightness Sun altitude
Rises 18:52:11 0° 296° (WNW) 2,808 ? -26.6°
Reaches altitude 10° 18:54:32 10° 302° (WNW) 1,902 ? -27.1°
Enters shadow 18:57:01 30° 321° (NW) 1,044 ? -27.5°
